Location: ??
(34.7707°N, 135.6540°E)
Time: 20:23:43
(UTC+00:00)

Tiangong - Pass Details

Date: 03 October 2021
Orbit: 382 x 385 km, 41.5° (Epoch: 18 October)

Event Time Altitude Azimuth Distance (km) Brightness Sun altitude
Exits shadow 18:49:43 17° 39° (NE) 1,070 3.9 -26.2°
Drops below altitude 10° 18:50:51 10° 55° (NE) 1,397 4.8 -26.0°
Sets 18:53:11 0° 71° (ENE) 2,249 6.3 -25.5°
